Regional Weather Roundup
Issued by NWS

Home | Current Version | Previous Version | Text Only | Print | Product List | Glossary On
Versions: 1 2 3 4 5 6 7 8 9 10 11 12 13 14 15 16 17 18 19 20 21 22 23 24 25 26 27 28 29 30 31 32 33 34 35 36 37 38 39 40 41 42 43 44 45 46 47 48 49 50
000
ASUS44 KLIX 251007
RWRLA
LOUISIANA WEATHER ROUNDUP
NATIONAL WEATHER SERVICE NEW ORLEANS LA
500 AM CDT FRI MAY 25 2018

NOTE: "FAIR" INDICATES FEW OR NO CLOUDS BELOW 12,000 FEET WITH NO
      SIGNIFICANT WEATHER AND/OR OBSTRUCTIONS TO VISIBILITY.
      SKY/WX - SKY CONDITION AND SIGNIFICANT WEATHER.
      TMP - AIR TEMPERATURE.    DP   - DEWPOINT TEMPERATURE.
      RH  - RELATIVE HUMIDITY.  PRES - PRESSURE.
      HX  - HEAT INDEX.         WCI  - WIND CHILL INDEX.

*  THESE STATIONS ARE NOT NWS OR FAA STATIONS AND ARE NOT UNDER
   NWS QUALITY CONTROL.

LAZ040-048-061>063-065-066-069-251100-
SOUTHEAST LOUISIANA

CITY           SKY/WX    TMP DP  RH WIND       PRES   REMARKS
N.O. INTL ARPT LGT RAIN  76  75  97 VRB5      29.97F
N.O. LAKEFRONT FAIR      78  71  79 S6        29.98F
N.O. DOWNTOWN* CLOUDY    77  69  76 S7        29.99F
RESERVE*         N/A     74  71  91 N3        29.98F
SLIDELL        FAIR      68  66  93 CALM      29.98F
BATON ROUGE    FAIR      70  68  93 CALM      29.99S
BOOTHVILLE     FAIR      81  75  82 CALM      29.97F
BELLE CHASSE   FAIR      73  70  90 CALM      29.97F THUNDER
BOGALUSA*      FAIR      69  66  90 CALM      30.00S
GALLIANO*      FAIR      73  69  90 CALM      29.97F
NEW ROADS*     FAIR      70  66  87 CALM      29.99F
GONZALES*      PTSUNNY   68  68  99 CALM      29.98S FOG
HAMMOND*       FAIR      68  68 100 CALM      29.99F
HOUMA*         FAIR      71  70  99 CALM      29.97F
PORT FOURCHON* MOSUNNY   81  75  83 CALM      29.97F

$$

LAZ041-044-053-054-251100-
SOUTHWEST LOUISIANA

CITY           SKY/WX    TMP DP  RH WIND       PRES   REMARKS
LAKE CHARLES   FAIR      73  71  93 CALM        N/A
LAFAYETTE      FAIR      72  71  97 CALM      29.98F
PATTERSON      FAIR      71  71 100 CALM      29.99F
SALT POINT       N/A    N/A N/A N/A CALM      29.97S
NEW IBERIA     FAIR      71  68  90 N3        29.98F
CHENAULT AIRPK FAIR      71  70  98 CALM      29.97F

$$

LAZ027-028-251100-
CENTRAL LOUISIANA

CITY           SKY/WX    TMP DP  RH WIND       PRES   REMARKS
FORT POLK      NOT AVBL
ALEXANDRIA INT FAIR      70  69  97 SE5       29.96F
ALEXANDRIA     FAIR      69  69 100 CALM      29.97F FOG

$$

LAZ001-002-251100-
NORTHWEST LOUISIANA

CITY           SKY/WX    TMP DP  RH WIND       PRES   REMARKS
SHREVEPORT     FAIR      71  69  93 W3        29.96S
BARKSDALE AFB  FAIR      71  71 100 CALM      29.96S
DTN SHREVEPORT FAIR      75  69  81 SW3       29.97S

$$

LAZ014-016-251100-
NORTHEAST LOUISIANA

CITY           SKY/WX    TMP DP  RH WIND       PRES   REMARKS
MONROE         FAIR      71  71 100 CALM      29.98S FOG
TALLULAH       FAIR      70  70 100 CALM      29.99R

$$




USA.gov is the U.S. government's official web portal to all federal, state and local government web resources and services.